Location: Bonac
(42.8765°N, 0.9753°E)
Time: 15:23:04
(UTC+00:00)

Cosmos 1850 Rocket - Pass Details

Date: 12 January 2026
Orbit: 749 x 781 km, 74.0° (Epoch: 17 February)

Event Time Altitude Azimuth Distance (km) Brightness Sun altitude
Rises 18:51:53 0° 338° (NNW) 3,256 7.4 -22.9°
Reaches altitude 10° 18:54:16 10° 337° (NNW) 2,329 6.7 -23.4°
Maximum altitude 18:59:33 76° 252° (WSW) 806 4.1 -24.3°
Drops below altitude 10° 19:04:50 10° 168° (SSE) 2,326 6.4 -25.3°
Sets 19:07:13 0° 167° (SSE) 3,251 7.2 -25.7°
